GFSNIL_sfc_wetblb_000.txt.gz
Wetbulb
32.21 32.82 31.51 30.51 29.67 27.32 26.30 26.35 26.67 25.90 25.54 25.56 25.79 25.08 25.15 24.80 25.01 25.23 25.45 24.45 25.01 25.91
32.31 30.22 29.62 27.87 26.89 25.87 25.36 26.67 25.13 24.69 23.89 24.13 24.12 24.22 23.60 23.30 23.69 24.35 24.68 24.72 25.06 25.08
30.76 28.56 27.64 26.31 25.12 24.53 24.16 23.91 23.17 23.10 22.88 22.83 22.81 22.50 22.09 22.24 23.11 22.87 23.28 23.85 23.19 23.33
28.48 27.28 26.17 25.62 24.49 23.66 23.41 22.77 22.15 21.99 21.64 21.33 20.97 21.27 20.40 20.50 20.45 19.19 19.45 20.29 19.99 19.88
26.81 25.96 24.95 23.85 23.30 23.02 21.77 21.73 21.05 20.52 20.08 19.78 19.64 19.34 18.78 17.69 18.02 16.79 16.50 17.42 17.61 17.05
25.72 24.69 23.70 22.91 22.57 21.83 20.86 19.91 19.97 19.20 18.20 18.06 18.15 17.66 17.51 17.02 16.72 16.11 15.81 16.00 15.77 15.82
24.29 23.65 22.59 22.12 21.16 20.20 19.34 18.37 17.90 17.60 17.14 16.67 16.10 16.46 16.11 17.01 15.87 15.31 15.88 16.44 16.68 16.42
23.35 22.39 21.63 20.06 18.46 17.73 17.36 17.20 17.12 15.98 15.38 15.15 14.63 15.35 14.98 15.95 14.87 15.41 15.67 17.07 17.43 17.57
21.07 20.06 18.69 17.10 16.64 15.78 15.32 14.99 14.52 13.55 13.23 13.15 15.05 18.20 20.47 20.01 17.21 17.20 16.35 15.53 16.74 17.68
19.52 17.93 16.55 15.84 15.06 14.69 14.40 14.57 13.64 13.55 13.56 13.40 14.21 18.21 19.97 20.67 18.84 16.95 16.04 15.86 16.15 16.93
17.78 16.35 14.76 14.41 14.12 14.09 14.15 13.52 13.06 12.91 13.43 13.16 13.59 18.16 19.40 19.64 18.60 16.68 16.33 17.01 17.85 18.24
17.14 15.07 14.00 13.13 12.77 13.40 13.24 12.79 12.71 12.68 11.08 10.90 11.32 15.32 17.65 19.29 16.27 16.42 16.88 18.46 19.28 19.57
16.40 14.09 12.85 13.05 12.35 13.12 12.98 12.01 12.36 12.02 12.19 11.08 9.52 14.33 17.72 19.86 15.69 12.82 16.01 17.55 19.24 19.77
14.32 12.75 13.13 11.18 11.50 10.98 10.58 11.24 10.90 10.65 11.38 11.72 12.39 12.01 17.73 20.07 18.14 16.56 17.80 16.04 15.77 16.60

GFSNIL_sfc_wetblb_003.txt.gz
Wetbulb
31.93 32.58 31.65 31.16 30.65 30.13 29.45 27.90 26.68 26.01 25.66 25.52 25.69 25.31 25.43 24.69 24.84 24.95 25.58 24.53 24.94 25.74
31.89 32.27 31.06 30.11 29.64 29.20 28.22 27.47 25.83 25.50 24.41 24.22 24.29 24.36 23.91 23.62 23.78 24.42 25.33 25.52 25.37 25.13
31.88 32.49 31.28 28.86 28.15 26.83 26.50 26.08 24.77 23.66 23.32 23.12 23.20 23.11 22.89 22.99 23.53 23.23 23.82 24.34 23.43 23.30
30.72 30.52 29.20 28.96 27.85 26.39 25.65 24.52 23.60 23.16 22.71 22.45 21.81 21.98 21.37 21.54 21.55 20.36 20.03 20.75 20.66 20.44
28.99 28.18 27.99 27.60 25.39 24.66 24.37 23.41 22.98 22.32 21.69 21.17 20.83 20.22 20.06 18.72 19.48 18.43 17.81 18.39 18.18 17.51
27.66 26.79 26.57 24.65 23.36 23.86 22.87 21.82 21.77 21.06 20.13 19.50 19.20 18.51 18.38 18.09 17.93 17.55 17.20 16.95 16.28 15.82
27.22 26.38 25.34 23.23 23.05 22.53 21.80 20.29 19.44 19.01 17.98 17.53 17.42 17.18 17.19 18.05 16.85 16.47 16.28 16.32 16.20 15.86
27.00 25.79 23.21 22.28 21.67 19.77 19.57 19.18 18.54 17.00 16.70 16.32 16.16 16.53 16.37 17.02 16.49 15.27 15.71 16.58 16.72 17.25
24.08 21.90 21.39 20.71 19.17 18.60 17.87 16.84 17.06 15.86 15.42 14.27 16.08 20.17 22.01 18.20 16.48 17.15 16.58 16.25 16.94 17.67
21.91 20.59 20.28 19.90 18.62 17.76 16.46 16.31 16.14 14.82 14.78 14.73 15.87 22.25 23.23 23.22 20.22 18.48 17.20 16.91 16.74 16.90
21.26 20.30 19.08 17.86 17.36 16.42 15.52 14.44 14.22 14.06 14.54 15.36 15.95 21.74 22.64 22.52 19.83 18.46 17.80 17.26 17.32 17.25
20.78 19.14 16.97 16.30 15.80 15.44 14.47 13.87 13.97 14.63 13.55 14.42 14.74 21.83 22.33 21.45 18.90 18.35 17.68 18.09 18.51 18.45
19.97 18.09 16.03 16.24 14.82 14.43 13.95 13.39 13.88 13.04 11.59 12.91 10.25 18.89 20.55 21.40 18.69 12.33 15.64 17.20 18.51 21.07
18.20 17.11 16.78 15.37 14.52 12.41 12.28 13.49 12.73 11.94 12.05 10.69 10.59 12.88 20.80 22.40 18.01 14.96 13.62 16.75 16.34 18.19

GFSNIL_sfc_wetblb_006.txt.gz
Wetbulb
34.21 32.34 32.82 31.15 31.38 30.73 30.35 29.89 28.81 27.64 26.51 26.12 26.19 25.95 25.79 24.96 24.82 24.83 25.40 23.95 24.58 25.29
33.66 32.11 32.34 30.50 30.76 30.66 29.76 28.12 26.79 26.84 26.01 25.33 25.20 24.99 24.20 23.79 23.89 24.34 24.80 24.57 24.81 24.34
32.67 31.82 31.84 28.39 28.91 28.52 27.40 27.36 25.94 25.73 25.20 24.48 24.30 23.80 23.12 23.08 23.57 23.13 23.45 24.27 23.48 23.43
31.26 30.86 29.54 28.37 28.03 27.06 27.12 26.48 26.21 25.68 24.63 23.79 23.23 23.08 22.08 22.00 22.12 21.54 21.19 21.22 20.96 20.86
30.85 29.72 28.93 28.42 27.76 26.68 26.48 25.92 25.53 24.80 24.00 23.06 22.47 21.74 21.35 20.27 20.48 19.21 18.93 19.37 19.19 18.48
29.23 29.25 29.66 28.47 26.43 26.17 25.62 24.72 24.56 24.04 23.01 22.14 21.32 20.45 20.39 19.96 19.11 18.28 18.17 18.29 18.23 17.78
29.19 29.11 29.33 28.33 26.45 26.22 25.36 23.80 23.57 23.18 22.21 20.63 19.68 19.22 18.92 18.65 17.34 16.84 16.95 17.46 17.28 17.29
29.96 29.35 28.45 25.70 25.31 24.97 24.09 23.28 22.74 20.62 19.58 18.92 18.42 18.48 17.97 17.81 16.35 16.05 16.14 16.94 17.59 17.72
28.30 27.05 25.73 24.52 24.31 23.09 22.50 21.50 20.71 19.55 18.43 16.78 18.44 23.22 24.25 19.64 17.04 16.85 16.61 16.39 17.11 18.31
26.76 24.90 23.68 23.52 22.48 21.39 20.79 20.14 19.18 18.30 17.16 16.45 17.34 25.36 25.82 23.14 18.32 17.59 17.45 17.74 17.74 17.75
24.68 23.38 22.07 21.78 21.15 20.96 20.55 19.25 18.64 16.90 17.17 16.91 16.85 26.45 27.21 24.99 19.94 18.54 18.43 18.01 17.85 17.28
24.71 23.40 20.99 20.72 20.85 20.77 19.71 18.83 18.41 17.47 16.42 16.18 16.27 26.74 27.39 25.55 19.18 18.76 18.18 18.37 18.43 18.20
24.29 22.98 21.12 21.22 20.26 20.02 19.60 18.68 18.03 16.14 16.37 16.34 15.30 26.06 26.93 24.89 18.53 16.15 17.04 17.33 18.42 20.81
20.34 20.33 19.70 19.58 19.10 18.05 17.65 16.39 16.56 14.81 14.40 15.25 14.86 20.92 26.37 26.25 18.31 15.66 14.81 15.31 15.67 18.48

GFSNIL_sfc_wetblb_009.txt.gz
Wetbulb
34.85 34.02 33.11 31.76 32.10 31.22 30.94 30.67 29.44 28.71 27.90 26.84 27.11 26.96 26.86 26.12 25.78 25.33 25.72 24.32 24.72 25.51
33.71 32.20 32.55 30.39 30.93 31.20 30.54 30.05 28.11 28.67 27.32 26.68 26.64 26.56 25.87 25.69 24.77 24.70 24.99 24.39 24.78 24.25
33.09 32.63 32.54 29.71 29.61 30.01 29.82 28.92 27.70 27.56 27.27 26.47 26.11 25.71 25.05 24.22 24.01 23.75 23.94 24.57 23.80 23.97
32.67 32.04 31.44 29.92 30.05 29.78 28.93 28.13 27.51 27.54 26.83 26.08 25.34 24.98 24.16 23.52 23.09 22.67 22.47 22.95 23.02 22.41
32.09 30.72 30.51 30.11 29.38 29.68 28.30 27.80 27.56 27.17 26.67 26.13 25.47 24.51 23.89 22.31 22.63 21.85 21.42 21.39 21.01 20.11
30.50 29.54 30.43 30.15 28.69 28.43 28.24 27.12 26.93 26.52 25.92 25.32 24.72 23.53 23.45 22.72 21.64 21.11 20.96 20.55 20.17 19.08
30.63 30.19 31.06 30.64 28.28 27.67 27.74 26.40 25.77 25.94 25.71 24.85 23.99 23.04 22.36 21.98 20.47 19.76 19.24 19.37 18.99 18.19
31.37 31.27 30.85 29.96 27.92 27.30 26.76 26.71 25.53 24.40 24.07 23.64 23.12 22.37 21.15 20.61 19.25 18.49 17.26 17.52 18.26 17.80
30.73 29.28 29.60 29.32 27.53 26.29 25.51 25.10 24.77 23.58 22.94 21.78 22.59 27.14 26.99 22.16 18.82 18.35 17.37 16.03 16.79 18.05
27.36 27.40 27.62 27.00 25.81 25.22 24.66 24.11 23.81 23.10 22.51 21.64 22.42 28.05 28.43 25.37 19.52 18.12 17.52 17.49 17.55 17.81
27.95 28.13 26.35 24.94 24.22 24.20 24.30 23.29 23.09 22.78 22.39 21.72 21.43 28.87 29.24 26.00 19.96 18.65 18.14 18.36 18.51 18.29
26.06 27.04 24.17 24.19 23.77 23.98 23.67 22.97 22.85 22.87 21.37 20.98 20.58 28.99 29.43 26.09 19.17 19.02 18.58 18.98 19.20 18.54
22.81 22.76 23.76 23.99 22.99 23.51 23.84 22.59 22.59 21.04 21.27 21.02 19.60 28.66 29.59 25.76 19.39 17.73 17.87 18.47 18.91 20.68
18.97 19.26 19.82 22.73 22.31 21.30 20.97 20.66 19.99 19.25 19.18 19.02 19.86 25.21 29.76 28.66 19.65 17.84 17.11 16.52 16.95 18.54

GFSNIL_sfc_wetblb_012.txt.gz
Wetbulb
34.40 34.21 34.22 32.30 33.08 32.01 32.04 32.13 30.54 29.37 29.01 28.60 27.97 27.65 27.73 27.39 26.79 26.03 26.43 25.29 25.23 25.79
32.81 32.20 32.49 30.16 31.09 31.64 32.23 31.45 29.05 29.45 28.18 27.56 27.66 27.50 26.98 27.07 26.11 25.96 25.80 24.97 25.14 24.88
33.28 32.97 31.99 30.37 30.74 30.55 30.72 30.06 28.17 28.88 28.34 27.33 27.45 27.13 26.73 26.12 25.44 25.31 24.84 25.16 24.47 24.36
30.88 30.56 30.74 30.19 30.81 30.72 29.81 29.19 28.00 28.92 28.23 27.50 27.00 26.88 26.47 26.01 24.87 24.88 23.95 23.85 23.88 23.52
30.67 29.68 29.25 29.65 30.23 29.95 29.12 28.81 28.74 28.58 27.97 27.58 27.38 26.70 26.59 25.21 24.94 24.04 22.96 22.84 22.96 22.30
29.87 29.24 29.97 30.75 30.31 29.51 29.65 28.65 28.71 28.27 27.64 27.31 27.05 26.20 26.46 25.84 24.44 23.97 23.45 22.71 22.31 21.47
29.79 30.29 31.67 31.82 30.05 28.86 29.46 28.37 27.98 27.96 27.61 27.15 26.66 26.11 25.75 25.08 23.75 23.04 22.46 21.98 21.92 20.75
30.69 30.11 30.31 30.30 30.10 28.37 28.45 28.50 27.90 26.89 26.51 26.29 25.91 25.63 24.79 24.59 23.61 22.35 20.97 20.76 21.19 20.36
31.05 29.25 28.50 29.39 29.14 26.94 27.14 27.34 26.67 26.14 26.26 24.57 25.42 29.69 30.13 26.78 23.51 22.55 21.08 19.24 19.17 19.20
30.47 29.81 28.84 26.92 27.17 26.63 26.19 26.82 25.95 26.03 25.84 24.98 25.42 30.40 31.30 30.42 24.02 22.74 21.39 20.23 19.20 18.43
28.29 27.58 27.99 25.27 25.91 25.74 25.41 25.63 25.77 25.61 25.40 25.28 25.06 30.38 32.26 30.90 23.99 22.85 21.49 20.61 19.94 19.52
27.76 26.13 25.84 25.63 25.45 25.84 25.03 25.47 25.98 26.47 25.52 24.98 25.29 29.92 32.40 30.25 22.44 22.25 20.50 20.34 20.38 20.17
26.06 23.85 23.77 24.25 23.23 25.33 25.56 25.58 24.95 25.22 25.83 24.88 24.80 28.77 32.24 30.24 21.52 19.76 18.98 19.74 20.05 22.30
26.72 23.96 22.58 22.04 19.06 20.04 22.58 23.41 22.68 21.48 23.06 23.16 23.28 24.44 31.70 31.55 21.79 20.47 19.10 18.51 18.37 19.57

GFSNIL_sfc_wetblb_015.txt.gz
Wetbulb
36.75 36.52 36.81 36.37 37.11 35.97 35.59 35.49 35.12 33.60 34.33 33.75 32.87 32.29 32.60 32.92 32.90 32.92 32.90 32.10 31.78 31.83
34.78 34.66 35.08 33.89 34.55 35.42 35.64 35.36 34.53 33.42 32.62 32.15 32.00 31.71 31.40 31.19 30.76 30.94 31.86 31.83 31.37 30.87
34.34 34.27 33.88 32.63 32.92 33.23 34.00 33.83 32.50 32.17 32.27 31.56 31.61 31.50 31.11 31.10 30.69 30.31 30.36 30.41 30.00 29.69
33.41 33.35 32.82 31.75 32.40 32.43 32.40 32.01 31.19 31.37 31.50 30.97 30.61 30.47 30.02 30.74 29.85 29.39 29.42 29.08 28.62 28.18
32.84 31.78 31.36 31.78 31.99 31.84 31.41 31.04 31.11 30.69 30.59 30.40 30.06 29.80 29.53 29.25 28.90 28.91 27.72 27.46 27.62 26.91
33.64 32.21 31.65 31.68 31.82 30.85 31.67 30.86 30.63 30.02 29.71 29.61 29.43 29.21 29.36 29.67 28.66 28.47 28.53 27.58 26.82 26.42
32.51 32.70 32.78 32.46 32.05 30.90 30.78 31.09 30.43 30.02 29.71 29.40 29.07 28.86 28.62 28.56 28.37 28.03 28.11 27.48 27.44 26.45
31.94 31.98 31.81 31.47 31.53 31.35 29.95 30.25 30.28 29.71 29.38 29.28 28.62 28.25 27.80 27.81 28.29 27.56 27.08 26.42 26.50 26.25
30.95 30.35 30.13 30.89 30.46 30.23 29.57 29.36 29.81 28.77 28.83 28.30 28.10 31.63 32.68 29.65 27.85 27.53 26.32 24.55 24.99 25.37
29.34 28.22 28.05 29.02 29.03 28.28 28.79 29.18 28.24 28.36 28.66 28.02 28.58 32.39 33.56 32.57 27.81 27.09 26.44 25.62 24.24 23.22
25.35 24.11 26.66 27.06 27.35 27.68 27.97 27.64 27.65 27.88 28.25 27.86 28.47 31.54 33.47 32.77 28.55 27.08 26.53 25.71 24.67 23.79
22.29 22.06 26.04 25.41 25.60 26.51 26.60 26.77 27.30 28.09 28.07 27.44 28.15 31.44 32.57 32.93 29.56 26.25 25.90 25.07 24.65 24.18
20.44 22.42 21.21 22.39 24.30 25.60 25.62 25.61 26.52 26.60 27.39 27.26 27.07 30.31 31.28 32.80 30.28 25.71 24.74 23.89 23.31 24.94
18.03 18.34 19.03 20.13 22.85 23.93 24.12 24.44 24.24 24.18 25.31 25.68 26.15 26.80 30.84 32.43 30.37 25.74 24.19 22.50 21.16 22.05

GFSNIL_sfc_wetblb_021.txt.gz
Wetbulb
41.50 41.53 41.91 42.50 42.99 43.40 44.05 45.05 45.73 44.67 44.60 44.22 44.02 43.65 42.83 42.06 41.41 41.26 41.06 40.93 41.68 40.98
40.18 39.97 39.73 40.27 41.15 41.69 42.40 42.73 43.28 43.78 42.90 42.59 42.53 42.14 41.81 40.62 40.06 39.92 40.21 40.09 40.36 39.88
38.13 38.82 39.28 39.55 38.82 39.01 39.61 40.30 40.62 41.05 41.24 40.99 40.73 40.49 39.92 39.38 39.27 38.59 38.73 38.99 38.68 38.80
36.50 36.44 36.20 35.75 36.90 37.63 37.66 38.00 37.67 38.01 38.13 38.57 38.64 39.38 38.77 37.89 37.85 37.13 37.19 37.38 37.38 37.32
34.49 34.72 33.86 33.67 34.16 35.18 35.70 36.63 36.39 36.43 35.95 36.15 36.89 37.48 36.86 36.46 35.53 35.83 35.50 35.93 35.42 35.61
32.78 32.34 31.40 31.28 32.42 33.10 33.36 33.75 35.03 34.82 34.79 34.89 34.95 35.33 35.89 35.42 35.09 35.21 35.35 35.40 34.95 34.38
30.99 31.33 30.63 29.72 29.85 31.22 31.97 31.88 32.67 33.05 33.04 33.45 33.74 33.40 33.71 33.40 34.00 34.14 34.46 34.82 34.64 34.67
29.89 30.14 29.50 28.49 28.22 30.11 30.39 30.33 31.13 31.09 31.79 32.06 32.15 31.79 32.12 32.21 32.32 32.14 32.62 33.49 33.18 33.58
28.47 28.04 27.34 27.10 26.39 28.05 28.78 28.47 29.06 28.80 29.47 30.08 30.66 33.27 34.31 33.84 31.96 31.21 30.68 30.62 32.11 31.98
27.24 26.53 25.99 25.34 24.86 24.90 25.59 26.41 26.48 27.47 28.33 28.42 29.78 32.50 33.50 34.34 32.20 31.34 31.04 30.37 30.35 30.56
26.69 25.53 25.06 23.72 22.76 23.06 24.19 24.11 24.27 25.41 26.86 27.46 28.28 31.39 32.46 33.32 32.20 31.64 31.52 31.47 30.84 30.20
25.88 24.23 23.24 20.52 20.42 21.65 21.92 21.88 22.15 23.42 23.58 24.49 26.41 30.02 30.99 31.11 31.16 30.82 30.77 31.26 31.63 30.96
24.57 22.74 21.42 21.08 19.98 20.49 20.27 20.51 21.13 20.84 21.95 22.55 23.15 27.93 29.65 29.85 29.62 29.58 29.88 30.90 30.93 31.24
21.87 20.71 20.46 19.85 19.38 18.30 17.44 17.64 16.77 17.27 18.71 20.16 22.32 24.30 28.28 29.81 28.49 28.67 29.06 29.74 30.17 31.03

GFSNIL_sfc_wetblb_027.txt.gz
Wetbulb
32.76 32.60 32.75 33.06 33.32 33.53 33.74 34.52 35.05 34.79 34.94 35.53 37.15 38.58 37.59 35.97 34.83 34.48 35.05 36.21 35.94 37.71
31.59 31.90 31.58 31.50 31.84 31.82 32.22 33.92 33.80 33.40 33.27 33.65 33.97 34.35 35.27 33.91 33.28 33.32 33.56 34.39 34.71 35.57
30.18 30.21 29.91 29.96 29.28 29.80 30.75 31.14 31.17 31.22 31.49 31.98 32.48 32.51 32.44 31.87 32.25 31.85 32.33 33.27 32.59 34.06
29.86 29.98 29.05 28.75 28.23 27.89 28.42 29.68 29.81 29.73 29.55 29.41 29.68 30.41 30.60 31.03 31.26 30.75 31.40 32.00 31.74 32.17
30.27 29.69 28.51 26.91 27.73 26.93 26.74 27.46 28.56 28.70 27.91 27.78 27.96 28.35 28.49 29.11 30.20 30.13 30.19 31.24 30.68 31.58
27.19 26.10 26.11 26.84 27.16 27.22 25.42 24.63 26.05 26.42 26.22 26.59 27.25 27.35 27.73 28.06 28.73 29.52 30.00 30.81 30.88 31.10
24.70 25.54 25.42 26.09 25.35 25.54 25.53 24.34 24.76 26.13 25.88 26.07 25.68 26.43 26.94 27.63 27.46 27.58 28.72 29.65 30.45 30.75
25.07 25.21 24.79 24.56 24.74 24.93 24.47 24.15 24.26 24.24 24.25 24.42 24.94 25.44 25.15 26.82 27.16 27.33 27.98 28.92 29.14 29.73
24.69 25.55 25.62 25.51 25.58 24.72 24.31 23.44 22.92 22.46 22.20 21.92 23.83 27.52 29.07 28.85 26.74 27.07 27.49 27.64 28.64 29.14
23.89 24.00 24.42 24.38 23.89 23.48 22.99 23.17 22.30 21.78 21.51 21.05 21.71 26.33 27.47 27.82 26.03 25.71 26.27 26.85 27.60 28.30
22.05 21.04 21.21 20.97 20.50 20.59 20.88 20.59 20.76 20.95 21.03 20.50 21.17 25.39 25.93 25.93 23.86 23.36 23.85 24.89 26.22 26.89
17.95 16.38 16.31 14.64 15.00 15.97 16.28 16.69 16.98 18.40 18.05 17.87 18.56 23.28 23.92 23.59 20.54 20.31 20.69 22.60 23.53 24.38
14.61 11.51 10.73 11.10 10.34 11.12 11.13 12.29 13.23 12.88 13.62 13.84 13.47 18.56 20.11 20.09 17.51 16.42 17.72 18.97 21.10 24.03
10.68 8.16 7.36 7.23 7.66 6.92 6.49 7.78 6.47 7.54 8.62 9.32 10.80 11.71 17.07 18.83 16.74 16.22 16.23 17.06 18.27 20.82

GFSNIL_sfc_wetblb_030.txt.gz
Wetbulb
29.76 29.54 29.65 29.52 29.66 29.80 30.10 30.98 31.90 31.94 32.03 32.41 33.15 33.31 33.55 34.00 34.01 35.72 36.49 36.41 36.78 37.26
29.04 28.08 28.27 28.26 28.83 29.51 30.01 30.71 30.47 30.58 30.39 30.60 30.99 31.08 31.47 30.76 30.74 31.32 32.32 32.89 33.28 33.81
28.37 28.98 27.18 26.18 25.46 25.62 27.02 28.17 28.41 28.26 29.10 29.50 29.59 29.44 29.16 29.18 30.38 29.68 30.29 31.86 31.85 32.80
27.80 27.59 27.47 26.57 26.48 25.24 25.15 25.29 25.41 26.07 26.73 27.26 27.85 27.35 27.65 28.05 28.24 28.09 28.88 29.50 29.65 30.55
27.33 26.15 25.41 25.26 25.58 26.22 25.80 25.99 24.76 25.22 25.27 25.57 25.57 25.67 26.36 26.32 27.21 27.19 26.78 27.71 28.46 29.20
25.24 24.77 24.75 25.08 25.46 25.54 25.20 24.89 24.45 24.34 24.13 24.89 24.81 24.66 24.76 24.87 25.61 26.05 26.79 26.97 27.79 27.95
24.33 24.51 24.52 24.82 24.69 24.29 24.37 24.54 24.08 23.63 23.97 24.21 24.20 24.35 24.45 24.78 24.41 25.34 26.50 27.22 27.50 28.04
24.86 24.65 24.15 23.69 23.33 23.72 23.69 24.05 23.91 23.47 23.02 22.90 22.99 23.55 23.31 24.52 24.36 24.57 25.38 26.39 26.85 27.49
23.13 23.29 23.42 23.05 23.31 22.91 22.63 22.03 21.92 21.59 21.54 21.36 22.89 26.04 27.12 26.35 23.77 23.94 23.64 23.56 24.95 25.88
20.52 20.23 20.52 19.94 19.49 18.83 17.99 18.36 18.06 18.49 19.12 19.20 20.32 24.66 25.75 26.17 23.98 22.87 22.16 22.08 22.92 23.87
18.35 16.08 16.12 15.20 14.27 14.24 14.56 14.25 14.31 14.62 15.19 15.46 17.10 21.43 22.14 22.13 20.45 20.23 20.83 21.16 21.11 20.90
14.03 11.59 12.09 9.70 10.26 10.86 10.28 10.07 9.70 11.61 11.09 10.53 11.16 16.52 18.01 18.36 15.80 16.12 16.41 18.18 18.48 18.69
12.19 6.26 7.72 8.30 7.21 7.96 7.43 8.43 8.90 8.29 8.40 8.09 7.07 12.97 15.50 16.60 13.97 12.14 13.63 15.36 17.39 19.80
9.11 6.69 5.83 5.56 6.05 5.01 4.34 5.54 3.70 4.46 5.23 5.67 7.10 7.85 14.28 16.50 14.40 12.99 12.03 12.39 13.69 15.92

GFSNIL_sfc_wetblb_033.txt.gz
Wetbulb
27.27 27.08 26.96 26.89 26.97 27.03 27.91 28.46 28.19 28.30 28.34 28.63 29.38 29.39 29.56 29.96 30.23 31.60 31.55 32.54 33.59 35.22
26.47 25.97 25.45 25.38 25.84 25.56 27.00 28.91 28.46 28.13 28.20 28.31 27.78 28.77 28.60 27.76 27.66 28.68 30.39 30.89 31.37 31.93
26.11 26.31 25.68 25.01 25.01 25.00 24.68 25.30 25.32 25.29 25.50 25.54 26.21 26.58 26.58 26.15 26.47 26.74 27.14 28.98 29.40 30.39
25.31 25.19 25.17 24.81 24.59 24.74 25.32 24.70 24.68 24.90 24.50 24.20 24.18 24.18 24.03 24.28 25.09 25.19 25.54 26.21 26.40 27.69
25.56 25.24 24.74 24.46 24.55 24.71 24.42 24.71 24.32 24.34 24.63 23.81 24.00 23.38 22.93 22.63 23.03 23.04 23.59 24.68 25.36 25.57
25.13 24.47 24.44 24.47 24.82 24.77 24.38 23.87 23.94 23.92 23.31 23.22 23.38 23.08 23.03 22.69 22.66 22.57 22.75 23.72 24.54 25.23
23.95 24.19 23.92 24.13 23.83 23.53 23.57 22.91 23.04 23.10 23.10 22.98 22.83 22.98 22.82 23.01 22.34 22.46 23.39 24.02 24.21 24.45
24.10 23.86 23.28 22.44 21.69 22.06 21.89 21.60 21.27 20.56 20.10 20.60 21.13 22.38 22.46 23.42 23.00 22.72 22.69 23.34 23.79 24.00
21.30 21.08 20.19 19.28 18.82 18.28 17.90 17.36 17.25 17.21 17.16 16.94 19.40 22.56 23.78 23.60 21.58 22.20 22.36 22.02 22.69 23.15
18.09 17.18 16.64 15.87 15.37 14.86 14.11 14.47 13.94 14.03 14.24 13.77 14.37 19.13 21.19 21.48 19.31 18.31 17.95 18.67 19.90 21.28
15.72 13.14 13.24 12.57 11.76 11.79 11.91 11.18 10.88 10.86 10.75 11.30 12.72 16.89 17.95 18.46 16.56 15.77 15.91 16.35 17.03 17.32
12.47 9.44 10.24 6.77 8.29 9.14 8.56 8.20 7.37 9.75 8.19 7.13 7.68 13.54 16.05 16.31 13.74 13.90 13.80 15.09 15.81 16.17
11.59 4.80 4.63 7.18 6.17 6.93 5.52 7.49 7.78 7.21 6.44 6.10 4.80 11.11 14.53 15.62 13.23 11.24 12.55 13.84 15.09 17.54
8.55 4.29 4.18 3.58 4.78 3.69 3.00 4.77 2.47 3.41 3.95 4.43 5.99 6.80 14.04 16.27 14.18 12.80 12.04 12.70 14.03 15.62

GFSNIL_sfc_wetblb_036.txt.gz
Wetbulb
25.87 25.74 25.29 25.08 24.79 24.53 24.98 25.66 26.11 25.94 26.40 26.16 26.89 27.10 26.81 26.52 26.50 27.31 28.41 28.72 30.09 31.22
24.83 24.61 24.08 23.71 24.04 23.74 24.14 26.81 24.56 24.30 24.11 24.67 24.83 24.92 25.15 24.22 24.11 24.88 25.58 26.34 28.19 28.53
24.29 24.40 23.99 24.13 23.96 24.06 24.14 24.30 24.14 24.14 23.85 23.67 23.91 23.60 23.01 22.83 23.86 23.14 23.44 24.87 24.58 25.77
24.59 24.41 24.54 24.40 24.03 24.06 24.25 24.16 24.12 24.00 23.62 23.28 22.86 22.84 22.07 21.72 22.12 21.85 22.23 22.66 23.18 24.44
24.92 24.66 24.11 23.71 23.88 23.96 23.71 24.07 23.65 23.73 23.07 22.76 22.62 22.02 21.68 21.20 21.24 20.70 20.99 21.95 22.21 22.60
24.41 23.87 23.50 23.38 23.71 23.71 23.10 22.47 22.43 22.48 21.71 21.40 21.60 21.44 21.60 21.53 21.48 21.13 21.23 21.71 21.90 22.32
23.84 23.62 22.92 22.99 22.57 21.72 21.58 20.36 19.45 19.18 19.02 19.29 19.47 20.10 21.02 21.87 21.50 21.52 22.21 22.81 22.87 22.62
23.80 22.80 21.95 20.47 19.74 18.73 18.28 17.82 17.73 17.24 16.86 17.09 17.51 19.70 19.65 20.09 19.66 19.52 19.74 20.78 21.69 22.37
20.88 20.49 18.96 17.69 17.08 16.50 15.92 15.20 15.18 14.82 14.32 13.79 15.80 19.21 21.06 21.06 18.49 18.02 17.29 16.51 17.58 18.28
17.12 16.36 15.31 14.83 14.37 13.72 12.68 12.86 12.12 12.07 12.06 11.42 12.27 17.72 19.66 19.84 17.34 16.26 15.65 15.66 15.81 16.26
14.93 12.70 12.81 11.74 10.88 10.78 10.72 10.01 9.69 9.62 9.44 10.34 11.08 16.39 17.56 18.40 16.36 14.65 14.46 14.72 15.04 14.88
12.13 9.54 9.63 5.95 7.40 8.17 7.61 7.42 6.23 9.41 6.98 6.37 6.82 13.44 16.54 16.67 14.65 13.55 13.42 14.43 15.06 14.89
11.09 5.56 4.53 7.02 5.05 5.89 3.33 7.26 7.61 7.23 6.23 5.74 4.35 11.24 14.92 16.34 14.38 11.47 12.59 13.56 14.77 17.53
8.77 5.05 4.04 2.53 3.65 0.63 0.25 4.25 0.93 2.84 3.61 3.78 5.40 6.33 14.14 17.36 15.39 13.86 13.69 14.69 14.99 15.84

GFSNIL_sfc_wetblb_042.txt.gz
Wetbulb
35.45 35.27 34.89 34.62 34.35 33.79 33.29 32.76 32.91 32.61 32.53 32.15 31.98 31.89 32.42 32.45 32.05 32.14 32.11 31.69 31.98 32.05
34.49 34.37 33.59 33.54 33.88 33.39 33.15 32.00 31.98 31.79 31.28 31.15 30.97 30.72 30.98 30.76 30.23 30.80 31.00 30.93 31.20 30.86
33.57 33.75 33.56 33.47 32.55 32.26 31.86 31.51 30.78 30.40 30.21 29.98 29.94 29.81 29.87 29.64 29.84 29.18 29.87 29.62 29.16 29.52
32.90 32.97 33.09 32.59 32.19 31.70 31.05 30.23 29.38 28.95 28.65 28.25 28.01 28.10 28.17 27.98 28.04 27.30 27.66 28.54 27.94 27.76
32.55 32.29 32.18 31.72 31.24 30.83 29.70 29.01 28.21 27.51 26.98 26.53 26.32 26.42 26.05 25.98 26.40 25.73 25.54 25.85 25.89 25.83
32.08 32.02 31.79 30.97 30.22 29.27 28.25 27.28 26.25 25.72 25.01 24.34 24.16 24.34 25.10 25.05 25.09 24.98 24.99 24.84 24.06 24.03
32.02 31.89 31.53 30.41 28.63 27.37 26.50 25.45 24.62 24.14 22.93 22.70 22.47 22.95 23.45 23.68 24.25 24.37 24.11 23.91 23.31 22.75
32.23 31.70 30.24 27.65 25.49 24.43 23.88 23.45 22.65 21.85 21.23 21.27 21.33 22.18 22.61 23.36 23.37 22.71 22.28 22.48 22.24 22.14
31.03 28.38 26.54 24.69 23.13 22.40 21.68 21.23 20.38 19.51 18.92 18.78 19.91 19.38 21.64 22.50 21.84 21.47 20.71 20.00 20.51 20.87
28.56 26.29 24.84 23.16 21.50 20.89 20.20 19.70 18.52 18.10 17.71 17.63 18.25 18.09 20.82 21.32 20.81 20.51 19.86 19.09 18.98 18.96
26.54 25.33 23.03 20.55 19.85 19.65 19.11 18.04 17.59 17.14 16.76 16.67 17.15 17.44 19.18 20.51 20.44 19.65 19.22 18.94 18.91 18.49
25.49 23.13 20.78 18.76 18.57 18.60 17.75 16.90 16.15 16.26 15.21 13.74 14.36 15.71 18.28 19.18 19.23 18.68 18.37 19.09 19.60 19.41
24.29 21.49 19.17 18.64 17.10 17.59 16.44 15.85 15.42 14.94 14.27 12.46 11.58 14.23 16.51 18.54 19.34 18.31 18.79 19.57 20.01 21.63
21.52 18.92 18.43 16.88 16.26 14.57 13.74 13.30 11.91 11.35 12.52 11.64 11.93 13.03 16.08 18.33 19.05 18.92 19.13 19.84 19.74 20.68

GFSNIL_sfc_wetblb_045.txt.gz
Wetbulb
38.21 37.71 37.19 36.82 36.28 35.36 34.54 33.96 34.37 33.86 33.69 33.36 33.15 33.09 33.82 33.55 33.18 33.21 33.06 32.26 32.57 31.89
36.46 36.18 35.57 35.64 35.71 34.68 34.33 33.50 33.20 33.15 32.58 32.34 32.13 31.84 32.14 31.85 31.18 31.67 32.07 31.44 31.53 30.83
35.70 35.75 35.41 35.20 34.24 33.80 33.03 32.87 32.32 31.83 31.65 31.24 31.08 30.70 30.78 30.86 31.05 29.75 30.64 30.42 29.57 29.74
34.93 34.95 34.94 34.31 33.72 33.20 32.70 31.91 31.01 30.55 30.12 29.54 29.10 29.06 28.83 28.79 28.45 27.81 28.11 28.70 27.94 27.53
34.45 34.20 33.81 33.20 33.07 33.01 31.46 31.22 30.05 29.25 28.58 28.12 27.77 27.45 26.92 26.65 27.02 26.28 25.97 26.40 26.10 25.53
33.56 33.25 33.13 32.86 32.33 31.81 30.81 29.84 28.00 27.74 27.02 26.28 25.85 25.45 25.98 25.48 25.62 25.72 25.69 25.42 24.51 24.10
33.13 33.20 33.32 32.71 31.64 30.37 29.92 28.32 27.31 26.63 25.30 24.73 24.32 24.16 24.35 24.41 24.81 25.08 25.02 24.93 24.23 23.54
33.68 33.55 33.18 31.52 29.83 28.60 27.42 26.88 26.02 24.87 23.82 23.62 23.18 23.73 23.00 23.83 23.99 23.57 23.22 23.59 23.59 23.20
32.64 31.53 30.50 28.95 26.99 25.83 24.91 24.25 23.39 22.47 22.04 21.80 22.58 22.70 22.05 23.16 22.55 22.54 22.11 21.54 21.94 22.02
31.13 29.33 28.35 27.08 25.23 24.10 23.42 23.33 22.07 21.51 21.18 20.44 21.40 21.96 21.75 22.62 21.70 21.39 21.48 20.87 20.56 20.47
29.34 27.84 27.06 25.04 23.58 23.40 23.24 21.69 20.71 20.39 20.25 19.96 20.34 21.30 21.22 21.50 21.02 20.96 20.91 20.73 20.17 19.77
28.43 27.06 25.74 23.06 22.41 22.92 22.03 20.96 20.20 19.78 18.48 17.94 18.13 20.32 20.23 20.46 19.92 20.09 20.18 20.97 20.97 20.73
28.13 26.89 24.87 23.52 22.09 22.71 21.69 20.73 19.86 19.08 18.65 16.93 15.52 18.47 19.80 19.85 19.18 18.44 19.64 20.76 21.55 23.14
27.25 25.54 24.89 23.14 22.43 20.43 18.96 18.28 16.98 16.41 16.52 15.98 15.32 14.84 19.26 20.38 18.99 19.09 19.18 19.80 20.21 21.27

GFSNIL_sfc_wetblb_048.txt.gz
Wetbulb
34.38 33.50 32.79 32.23 31.32 30.09 29.08 28.79 29.35 28.75 28.48 28.50 28.54 28.43 28.83 27.71 27.20 26.94 26.44 25.95 26.59 26.83
32.43 31.96 31.20 30.83 30.27 29.11 29.26 30.42 28.96 28.29 27.52 27.57 27.56 27.42 27.48 26.14 25.22 25.38 25.54 24.88 25.23 25.56
31.65 31.36 30.82 30.31 29.08 28.20 28.23 28.67 27.93 27.00 26.96 26.87 26.29 25.87 25.58 24.52 24.71 24.07 24.01 25.16 24.18 24.15
30.49 30.65 30.49 29.38 28.71 28.11 27.81 27.41 26.65 26.27 25.81 25.34 24.69 24.32 23.54 23.47 23.23 22.81 22.88 22.93 22.66 22.77
30.35 29.82 29.00 28.52 28.18 27.40 26.44 26.28 25.59 25.47 24.81 24.44 24.06 23.30 23.06 22.34 22.48 21.96 21.87 22.41 21.94 21.11
28.41 28.21 27.63 27.25 27.05 26.75 25.53 24.80 24.34 24.12 23.65 23.27 23.10 22.40 22.55 22.09 21.95 21.43 21.52 21.62 21.33 20.79
27.85 27.83 27.60 27.13 26.44 25.90 25.22 23.99 22.97 23.16 22.81 22.33 21.93 22.03 22.40 22.49 21.40 21.23 21.75 22.11 21.46 20.63
27.89 27.97 27.62 26.75 25.76 25.02 24.44 23.66 23.39 22.41 21.41 21.19 21.14 22.12 21.25 22.46 21.50 21.16 21.09 21.27 21.84 21.31
28.15 27.64 27.29 25.70 24.80 23.76 23.04 22.21 21.60 20.74 20.63 19.61 21.67 24.54 24.10 23.44 21.61 21.95 21.45 20.33 20.47 20.34
27.78 28.41 26.09 25.07 23.43 22.34 21.40 20.97 20.05 19.72 19.47 18.80 19.34 24.84 24.37 23.98 22.21 20.85 20.32 20.42 20.50 20.50
28.36 26.64 24.70 23.54 22.61 21.24 20.74 19.82 18.86 18.26 18.43 18.21 19.05 24.52 24.49 23.79 21.08 20.05 20.12 20.06 19.93 19.33
27.50 26.03 24.66 23.46 21.39 21.45 19.90 18.12 17.10 17.57 15.73 15.29 15.97 23.69 24.10 22.82 19.41 19.38 19.28 20.64 20.32 19.86
27.68 26.65 24.66 23.52 20.67 19.94 16.87 18.86 18.77 18.05 15.55 15.03 12.94 21.67 23.49 22.79 18.84 13.37 17.43 18.86 20.85 23.01
25.89 25.65 24.63 21.99 18.11 18.30 16.04 17.82 14.79 14.94 14.52 13.63 14.10 13.75 21.89 23.20 19.77 17.03 15.57 16.68 17.84 20.29